RH
58 58 66 64 58 60 68 62 54 66 65 68 59 62 79 77 72 84 78 79 82 92 89 80 89 84 78 77 75 78 78 88 82 76 69 62 57 54 50 57 62 58 56 62 64 61 69 76 79
52 66 66 72 52 72 67 54 62 57 65 62 62 68 79 86 82 96 86 78 80 85 88 84 82 85 80 81 78 75 81 78 60 62 63 61 60 54 60 66 61 59 60 61 64 73 76 75 75
66 60 70 78 51 63 63 55 63 62 61 58 71 66 75 90 86 88 75 80 84 85 84 83 84 90 90 94 87 85 75 64 65 65 74 75 71 77 69 62 56 58 59 58 67 73 76 72 78
59 59 60 40 35 38 48 55 60 63 63 63 68 87 76 73 78 79 76 82 83 82 82 80 83 94 98 96 91 90 87 66 64 78 86 81 82 74 70 63 64 66 61 66 74 74 77 76 78
54 55 45 43 46 47 46 47 53 60 68 67 68 88 86 80 76 72 84 87 84 84 85 82 83 91 90 92 91 88 89 67 63 67 78 74 79 75 68 61 64 62 66 72 77 82 88 93 84
49 49 44 49 47 50 47 45 54 69 75 75 78 80 94 86 80 83 84 83 84 85 84 85 87 89 90 91 80 64 62 60 56 60 62 62 65 64 60 58 61 66 68 83 85 93 95 91 87
56 52 48 46 57 53 50 57 70 74 74 76 68 79 93 86 85 84 81 82 86 84 84 83 86 92 89 72 63 63 62 63 62 60 63 60 58 62 62 58 63 69 70 88 94 93 79 78 74
40 39 44 41 57 53 52 57 62 63 68 60 64 87 91 86 89 84 80 83 86 86 84 84 89 90 83 73 69 70 66 63 61 62 59 56 56 57 61 64 64 70 84 96 88 64 69 72 68
33 42 45 45 44 43 51 66 56 56 66 58 61 70 72 87 91 93 92 91 87 88 86 88 85 81 74 84 74 69 67 66 68 62 59 57 59 61 67 66 70 68 69 70 69 69 69 71 71
36 40 37 35 36 49 48 57 59 64 64 67 74 74 83 89 93 96 97 97 97 90 86 86 85 85 90 83 82 74 72 69 62 60 56 56 63 67 69 69 68 67 63 67 70 69 70 71 75
35 33 32 31 32 40 46 54 49 60 71 70 82 86 83 86 90 95 94 92 92 84 87 84 84 83 80 75 73 71 67 62 57 58 60 62 67 73 72 70 67 58 67 72 70 70 73 73 74
26 28 30 29 34 39 47 48 59 58 58 56 66 74 81 86 88 91 92 95 97 91 86 86 87 84 81 76 68 69 64 64 60 59 63 64 73 74 71 68 70 72 74 76 72 74 76 77 74
16 16 28 32 32 34 40 50 57 52 57 59 66 74 79 81 84 85 88 93 94 93 85 82 85 87 84 80 76 72 68 66 67 63 61 65 73 67 67 71 71 68 71 76 78 77 80 76 67
12 24 32 34 36 37 49 53 54 56 61 68 70 75 75 76 79 82 88 94 95 88 75 71 75 77 80 75 74 69 63 64 66 64 67 68 71 72 71 73 74 72 74 73 78 80 77 74 75
24 32 32 34 35 48 41 50 56 57 62 72 74 75 74 75 78 81 86 90 89 84 73 75 76 80 74 75 70 68 67 69 70 67 72 74 74 72 72 72 73 73 76 76 78 81 81 80 74
26 32 39 33 37 45 39 55 63 57 62 72 74 74 75 76 77 80 83 85 84 85 82 73 75 76 72 74 75 71 72 73 68 68 69 70 71 73 74 72 69 72 75 77 82 83 77 75 75
27 42 38 37 35 41 43 56 64 56 62 72 73 72 73 76 73 76 79 80 81 80 76 74 73 73 73 69 72 75 76 74 74 74 72 71 73 75 75 73 74 78 79 84 85 84 84 74 74
37 38 35 44 35 42 50 55 65 58 59 66 66 65 69 70 70 69 70 75 74 74 74 72 71 71 71 69 70 75 80 79 80 77 74 73 75 75 71 72 74 83 81 83 82 84 84 83 84
27 36 33 34 30 40 52 58 68 60 58 60 60 62 64 63 58 61 64 68 72 73 75 74 74 74 73 76 79 86 83 81 81 81 75 75 76 77 76 73 77 78 80 79 82 82 84 80 86
27 29 34 26 29 35 50 53 63 61 59 58 59 60 60 58 61 58 60 65 67 65 68 73 74 71 71 74 76 80 80 83 82 82 83 82 79 80 78 72 75 77 79 77 75 77 82 84 88
19 20 22 27 37 42 50 56 63 62 58 56 55 54 55 56 58 59 59 64 65 67 66 66 69 70 71 73 78 86 86 87 86 88 82 81 81 81 78 76 64 69 70 70 72 75 83 86 90
22 17 17 28 37 46 41 55 66 56 61 55 53 54 54 54 52 54 57 60 63 62 60 60 61 66 71 72 80 82 82 87 83 82 80 83 79 79 72 54 63 70 72 74 70 81 86 89 85
16 17 20 30 37 42 50 46 45 57 64 55 49 48 48 48 49 53 53 54 57 60 59 56 57 61 68 72 75 81 83 82 80 76 76 82 84 84 57 60 64 70 76 71 72 73 78 82 84
15 14 23 33 41 47 43 44 43 72 53 46 46 46 47 47 50 51 50 52 58 58 57 54 55 57 64 67 72 77 79 82 87 76 68 83 90 64 56 61 68 71 75 65 69 70 71 75 79
15 20 27 28 48 47 42 52 34 39 43 38 43 45 46 45 51 53 56 57 60 64 58 55 54 59 62 65 70 75 78 80 83 68 64 83 72 56 53 56 65 68 57 65 67 67 68 68 73
17 20 29 25 37 40 47 57 39 26 29 37 38 40 41 45 50 52 54 55 59 64 61 62 64 61 62 67 71 74 78 84 90 73 64 72 58 55 51 61 62 51 49 60 66 62 63 65 65
15 19 17 25 30 31 40 31 22 21 27 39 39 44 43 46 49 53 54 55 57 62 63 62 65 66 65 65 71 74 81 86 96 63 61 61 56 55 54 56 55 55 52 57 63 58 60 64 68
14 16 19 28 29 33 32 26 31 24 29 34 42 42 41 43 49 52 56 56 57 57 60 63 64 66 64 62 66 69 77 85 80 45 56 57 53 51 54 53 59 60 58 58 62 60 54 60 64
17 19 23 25 29 30 29 33 28 23 28 29 39 36 38 41 47 51 57 56 57 56 58 66 70 72 72 64 66 70 76 83 46 41 39 45 51 51 47 55 59 61 63 62 60 54 56 61 64
13 16 19 19 24 33 29 25 18 24 24 39 35 35 36 42 47 50 56 56 59 58 56 63 69 74 73 72 74 72 74 71 44 44 42 52 56 57 52 57 59 60 65 64 56 54 56 57 59
Wind_Speed
9 6 1 2 3 5 1 3 3 3 2 1 2 5 9 8 3 5 8 12 14 15 17 18 20 18 18 17 20 19 19 20 22 22 23 22 18 15 13 10 10 9 7 7 7 8 7 6 5
7 3 3 2 4 4 4 4 6 3 5 9 9 8 6 6 4 9 11 15 16 16 18 21 19 17 17 19 21 21 22 24 23 21 21 18 16 14 12 10 8 7 6 5 6 5 4 4 4
5 3 3 3 4 1 1 3 8 10 8 4 4 5 4 3 7 11 13 18 17 18 20 20 18 19 19 19 21 22 25 26 19 17 17 17 15 13 10 8 7 6 5 4 3 3 3 4 4
3 5 3 4 4 1 3 7 13 10 4 7 9 7 5 11 6 11 24 19 20 20 20 20 20 20 19 18 19 21 23 23 15 15 14 14 12 10 7 6 5 3 2 1 2 3 4 5 6
5 2 3 3 4 2 3 7 8 5 5 7 3 5 7 3 13 26 23 21 22 20 19 20 20 19 18 18 18 19 19 18 17 14 13 13 11 8 6 5 3 1 1 2 3 5 5 6 6
3 2 5 2 2 3 4 6 3 4 8 8 9 7 3 17 25 24 23 23 22 20 19 18 18 17 18 18 20 20 19 18 16 13 12 11 9 7 5 3 1 2 2 3 5 6 7 7 7
4 3 3 3 4 3 3 5 6 3 8 7 10 6 6 13 22 24 24 23 20 19 18 17 18 17 19 20 20 19 18 16 15 13 11 10 7 5 4 3 3 3 3 5 6 7 7 7 6
2 3 3 2 5 3 5 3 6 5 2 9 10 7 9 16 24 25 23 22 19 18 17 19 18 18 19 17 16 16 16 15 15 13 11 8 5 4 4 4 5 5 6 7 7 7 6 6 6
3 3 3 7 8 5 6 4 4 5 10 3 5 6 14 26 25 23 22 20 19 18 17 18 19 18 18 16 14 13 14 14 13 11 8 6 6 5 6 6 8 7 6 7 6 6 6 7 6
3 2 7 7 6 8 11 8 9 5 9 2 6 15 27 27 24 21 19 18 20 20 19 20 19 18 18 16 15 15 14 14 14 12 10 8 8 7 8 9 7 8 5 4 3 4 5 6 7
5 6 5 5 7 15 11 8 5 10 6 6 14 19 22 24 21 20 20 23 26 25 21 21 22 20 19 18 17 16 15 14 13 12 12 10 8 7 5 4 4 1 4 3 3 5 4 5 7
3 8 8 7 8 12 14 9 6 11 6 7 14 20 20 18 18 20 20 20 22 25 26 24 22 21 21 20 18 16 16 17 16 15 14 13 10 7 4 3 3 4 6 4 4 7 6 7 11
6 4 9 9 11 11 13 7 5 7 4 14 17 18 18 15 19 21 23 22 25 25 27 25 24 23 22 21 18 17 17 17 15 15 16 15 13 8 5 4 5 6 6 6 8 8 8 10 12
3 3 9 7 8 5 9 5 8 4 13 14 17 17 16 16 20 20 19 18 23 26 27 25 25 24 23 23 21 18 18 17 16 15 14 15 13 12 9 8 8 8 8 9 10 10 11 11 12
5 6 9 4 4 5 11 2 7 10 16 16 15 14 14 14 19 20 22 23 28 29 29 28 27 23 23 23 17 17 17 17 16 16 15 15 14 12 11 10 10 8 8 9 10 10 11 10 8
3 5 6 4 7 8 6 6 3 14 17 17 15 14 14 14 19 22 22 26 28 28 31 29 26 25 23 23 20 19 18 18 21 20 18 15 14 13 12 12 11 9 8 9 9 8 8 8 10
3 7 4 3 6 7 3 4 8 13 14 15 15 15 14 13 15 22 25 28 28 31 30 31 28 27 25 21 20 19 16 14 14 15 15 14 14 12 12 13 12 9 9 9 7 6 7 10 11
6 6 3 7 9 8 6 4 12 14 13 16 16 14 15 15 16 22 26 30 33 33 32 31 30 28 23 21 20 19 17 17 16 15 13 12 13 13 12 11 8 8 7 5 5 6 8 10 11
8 7 17 1 3 3 5 5 15 16 13 14 14 14 15 16 19 24 26 28 32 33 33 31 31 31 27 26 24 21 20 19 18 17 15 14 11 10 10 7 6 5 5 6 6 7 7 8 7
10 7 10 2 4 4 2 3 10 16 18 17 15 15 14 14 9 15 22 24 28 34 35 33 32 29 29 28 25 23 22 18 17 15 14 13 12 12 8 6 6 6 6 6 7 7 6 4 4
5 10 6 15 5 3 6 3 7 11 8 11 12 12 13 15 14 11 18 24 27 30 35 35 35 33 32 28 26 21 15 14 13 16 13 12 11 10 7 6 7 5 6 6 5 6 5 4 3
7 8 8 9 9 7 6 5 7 11 17 14 17 15 16 16 14 14 17 21 25 33 37 36 34 35 35 30 28 26 22 19 19 15 15 14 13 11 8 7 6 7 7 6 7 4 4 5 3
9 8 11 8 8 5 1 2 6 14 12 21 21 19 19 19 17 17 18 27 31 33 36 36 35 35 36 33 30 29 25 21 16 15 15 16 16 13 11 11 9 9 9 8 5 5 5 6 4
9 7 6 4 4 2 9 9 5 7 24 25 19 20 20 18 18 16 25 28 27 31 35 36 37 36 35 32 29 29 27 23 19 17 15 16 18 15 15 15 13 9 11 8 6 6 6 6 6
6 6 2 2 2 6 3 4 12 11 16 24 23 24 22 19 17 17 17 22 25 27 35 38 39 38 35 33 31 31 29 26 21 19 20 20 19 17 15 15 15 12 9 8 6 5 6 6 7
6 9 6 6 5 5 4 8 10 20 13 9 8 19 15 18 17 20 19 25 26 30 35 35 37 40 38 36 34 33 31 28 24 21 22 23 20 17 14 14 12 9 8 9 6 6 8 10 7
4 4 7 7 2 2 5 8 9 6 7 8 14 13 18 20 20 20 19 28 29 31 36 40 39 39 38 38 36 34 31 30 27 23 23 23 19 16 15 14 12 13 12 11 10 7 7 6 9
10 9 3 3 5 5 5 4 6 5 11 9 8 16 18 18 17 18 18 27 32 36 38 39 40 41 41 40 40 37 34 32 28 24 25 24 21 19 18 15 14 14 14 13 12 11 10 11 12
3 4 5 6 5 7 4 6 9 10 12 12 14 19 18 17 17 17 19 32 36 37 34 35 35 36 38 44 44 40 37 34 29 27 26 25 22 20 19 18 17 17 16 14 14 13 12 14 15
11 11 9 7 6 3 4 7 5 12 6 9 12 15 8 12 16 17 18 26 28 31 32 35 35 33 40 42 41 43 39 38 34 31 28 25 23 22 20 20 19 19 18 16 15 12 12 14 14
Wind_Direction
147 138 55 42 22 75 64 100 89 96 102 40 31 87 99 48 54 145 151 156 156 149 153 157 146 149 149 148 146 147 141 138 142 150 155 155 153 151 148 137 131 128 129 123 106 94 87 81 65
137 112 46 71 73 27 322 94 105 79 117 113 91 103 52 69 61 116 133 154 157 153 155 161 154 150 153 155 151 149 151 147 144 147 154 161 162 153 151 145 132 134 138 121 94 82 70 59 47
64 44 86 91 90 137 193 69 119 126 146 91 109 72 66 77 110 132 148 150 151 150 154 156 156 157 154 153 152 153 157 154 147 149 155 157 153 149 148 141 139 142 133 106 92 77 52 18 14
45 10 18 73 88 181 157 133 131 132 92 58 111 65 75 129 129 148 151 152 151 151 154 157 160 160 155 154 151 156 160 165 156 152 156 154 154 149 141 143 138 127 103 76 23 21 2 1 354
54 52 55 66 18 21 71 128 135 118 86 89 51 91 98 75 131 145 154 157 154 154 158 159 161 160 160 155 154 153 153 160 161 160 161 163 162 156 148 147 137 89 352 335 348 345 346 335 329
48 78 57 50 73 51 47 107 99 75 115 116 96 102 99 140 139 152 158 159 158 158 161 159 159 156 156 157 159 155 161 167 170 165 162 162 163 162 157 166 224 307 313 320 333 334 330 320 313
127 89 137 116 106 53 141 94 114 105 140 128 136 109 118 148 152 159 163 162 163 162 159 161 160 159 163 165 164 167 169 168 166 162 158 164 170 170 189 232 278 284 288 309 321 318 327 321 308
136 90 122 121 160 193 161 85 136 124 72 113 138 159 165 170 158 164 166 167 167 165 169 166 166 167 167 169 173 173 171 170 168 168 171 173 182 211 233 258 281 283 288 296 313 327 345 344 342
165 93 161 191 155 185 156 120 160 105 141 212 161 148 144 154 154 155 162 169 172 172 176 172 173 173 176 182 181 179 186 185 187 189 191 188 213 225 253 262 280 288 300 332 339 344 355 343 345
139 149 208 182 170 164 157 156 152 132 168 96 93 115 139 151 155 156 165 173 181 184 186 183 185 184 184 184 182 190 192 194 197 205 207 207 225 242 258 282 281 277 279 320 332 344 327 331 340
193 218 166 179 169 149 149 155 169 145 228 205 161 151 153 157 162 167 177 183 187 188 192 194 193 195 197 194 193 193 191 199 203 209 215 221 235 248 262 280 312 287 274 290 320 323 333 340 344
195 251 153 163 155 149 160 132 154 167 217 172 163 155 157 164 169 175 180 183 186 194 194 195 197 202 203 203 207 209 210 207 212 216 221 223 242 246 255 263 290 302 308 289 312 328 324 337 330
221 214 161 164 161 155 130 158 163 188 128 133 144 153 166 171 175 183 187 190 192 196 199 200 202 207 209 210 212 215 218 215 218 224 229 231 246 256 257 241 275 294 302 286 301 313 320 328 328
271 157 145 125 115 109 122 136 119 200 137 141 153 166 172 178 182 186 187 190 193 199 204 205 207 209 211 213 216 219 223 222 226 225 229 238 250 264 264 254 269 279 284 290 295 306 313 322 327
160 101 69 80 116 101 109 144 213 153 152 156 167 173 180 188 190 192 190 193 201 203 202 205 207 209 214 214 211 225 226 229 230 233 237 244 256 252 259 263 267 274 284 297 298 301 311 320 324
92 63 113 203 146 170 119 246 162 158 158 168 176 183 188 195 196 200 202 204 206 206 206 207 210 212 216 218 216 225 231 233 234 242 244 244 249 252 256 263 267 265 283 293 294 300 310 321 331
345 150 131 173 200 146 164 220 176 170 167 174 181 188 195 198 203 206 203 207 209 211 210 210 211 214 216 219 223 226 227 231 226 224 234 238 243 244 259 261 264 267 281 288 289 293 308 317 326
185 167 119 197 195 166 166 230 163 181 178 181 189 193 194 201 203 203 206 209 211 213 215 214 214 217 218 222 228 230 230 230 229 229 232 241 246 257 268 274 256 261 268 275 285 292 303 308 320
156 172 187 171 27 42 186 164 180 187 193 197 196 197 201 205 205 204 206 204 209 214 215 217 218 221 221 218 220 223 230 232 236 238 243 245 247 256 271 260 258 242 248 276 283 293 302 316 325
169 154 207 330 148 150 135 301 199 199 202 199 201 207 204 210 188 193 201 201 205 212 215 217 217 220 218 221 220 221 225 230 237 237 237 243 248 244 232 233 231 254 268 274 288 286 286 298 308
171 177 166 218 145 66 122 315 195 214 215 213 222 219 215 209 204 199 194 197 205 208 212 215 216 218 220 221 218 217 225 233 232 230 226 220 221 208 217 238 263 254 259 275 279 281 265 264 261
159 208 165 144 143 201 166 240 225 205 211 214 218 210 214 213 210 203 196 199 203 213 218 218 217 220 221 222 219 219 222 223 229 226 221 223 210 207 221 232 250 239 245 261 282 259 254 239 236
211 155 157 161 174 119 205 84 260 174 217 225 217 209 212 208 206 205 204 204 205 212 217 220 221 223 224 223 225 222 226 231 232 228 231 218 203 208 219 216 220 223 238 261 245 248 248 249 245
142 104 63 61 101 126 217 186 254 190 213 228 213 215 208 204 203 203 203 203 207 206 214 220 221 225 222 223 224 223 225 227 228 231 225 205 203 212 215 218 218 227 241 243 233 241 254 251 243
87 79 357 22 66 208 188 150 231 219 221 222 204 207 205 201 196 195 192 196 198 198 209 216 219 221 221 221 223 222 223 222 227 229 213 201 203 215 223 216 211 220 225 203 214 248 255 245 244
179 151 157 185 183 225 96 206 243 232 231 249 216 214 201 201 197 196 194 193 195 200 209 210 214 218 220 220 223 222 223 223 229 235 222 209 212 218 214 195 202 215 213 206 241 268 264 245 256
188 155 187 121 44 98 200 283 306 227 254 208 213 182 200 199 198 196 191 192 196 201 207 210 213 218 220 222 223 221 222 224 227 227 221 214 215 217 204 202 215 218 221 233 245 265 275 276 269
173 168 99 3 145 221 257 261 230 253 243 213 209 202 207 203 196 194 190 194 199 205 209 210 214 216 218 222 223 220 219 220 218 217 214 213 212 209 212 216 218 225 234 241 248 262 274 276 279
126 152 64 125 137 174 200 257 214 217 216 213 214 211 201 196 193 191 194 198 201 206 206 208 211 212 216 222 222 221 218 215 209 209 209 204 205 213 219 221 219 229 237 243 253 261 270 277 286
193 184 165 197 230 217 180 255 221 210 206 228 225 216 186 184 192 192 194 196 202 206 207 208 209 210 216 220 219 220 218 210 207 208 209 213 214 216 220 216 224 233 239 245 253 262 271 278 280